Voltar ao catálogo

GEOSKAN-3

AtivoCiênciaSSO
NORAD 64893·PAYLOAD·🇷🇺 Russia
Este nome de satélite ainda não foi confirmado por fontes oficiais.

Lançado Jul 25, 2025 de Vostochny Cosmodrome

Loading…

Próximas Passagens (próximas 24 horas)

TLE

AtualizadoSource: Space-Track

Época: Sep 14, 2026, 14:09 UTC

1 64893U 25155T   26257.58997743  .00016526  00000-0  44005-3 0  9998
2 64893  97.4640 228.7470 0004422 195.8065 164.3042 15.38262863 94588

Acompanhe GEOSKAN-3 em tempo real com AllMySat

Download on the App Store